Starlink 11152

operational
NORAD ID: 60194 Int'l Des: 2024-124 Owner: SPXS Country: US Constellation: starlink
LEOCIRCULAR

About Starlink 11152

Description loading...

Live Position

Loading 3D Globe...

Upcoming Passes

Altitude History

Altitude vs Time

uPlot chart will show altitude changes over time

Two-Line Element Set

1 60194U 24124M 25256.87989765 -.00001796 00000-0 -99730-5 0 9990
2 60194 53.1585 312.8947 0001046 91.7145 268.3993 15.69709882 69955
Epoch: Sep 13, 2025 • Age: 42 hours

Current Status

Altitude 379.0 km
Velocity 7.68 km/s
Sub-Earth Point -53.31°S, 14.15°W
Launch Date Jul 3, 2024
Age 1.2 years
Type internet

Technical Details

Classification Payload
Mass 960.00 kg
Dry Mass 910.00 kg
Total Mass 960.00 kg
Length 0.30 m
Diameter 4.10 m
Span 29.00 m
Shape Box + pan
Manufacturer SPXS
Bus Type Starlink V2MD
Phase Status In Orbit
Owner/State SPXS/US

Large Constellations

Loading constellations...